Terminal Aerodrome Forecast
Issued by NWS St Louis, MO

Home | Current Version | Previous Version | Text Only | Print | Product List | Glossary On
Versions: 1 2 3 4 5 6 7 8 9 10 11 12 13 14 15
000
FTUS43 KLSX 302332
TAFCOU
TAF
KCOU 302332Z 3100/3124 24012KT P6SM VCTS BKN050CB
      TEMPO 3100/3103 3SM -SHRA OVC025
     FM310300 18005KT P6SM BKN050
     FM310600 16004KT P6SM BKN040
     FM311200 14004KT P6SM BKN080
     FM311600 16007KT P6SM VCSH BKN050=

USA.gov is the U.S. government's official web portal to all federal, state and local government web resources and services.